Terminal Aerodrome Forecast
Issued by NWS Cleveland, OH

Home | Current Version | Previous Version | Graphics & Text | Print | Product List | Glossary On
Versions: 1 2 3 4 5 6 7 8 9 10 11 12 13 14 15 16 17 18 19 20 21 22 23 24 25 26 27 28 29
000
FTUS41 KCLE 221900 AAA
TAFCLE
TAF AMD
KCLE 221930Z 2220/2324 36014G20KT P6SM SKC
     FM230000 03007KT P6SM SKC
     FM230200 10003KT P6SM SKC
     FM231200 19006KT P6SM SKC
     FM231800 26008KT P6SM SKC=

USA.gov is the U.S. government's official web portal to all federal, state and local government web resources and services.